Weather Roundup
Issued by NWS Chicago, IL

Home | Current Version | Previous Version | Graphics & Text | Print | Product List | Glossary On
Versions: 1 2 3 4 5 6 7 8 9 10 11 12 13 14 15 16 17 18 19 20 21 22 23 24 25 26 27 28 29 30 31 32 33 34 35 36 37 38 39 40 41 42 43 44 45 46 47 48 49 50
000
NZUS59 KLOT 060503
HRRLOT

CHICAGO AREA WEATHER ROUNDUP
NATIONAL WEATHER SERVICE CHICAGO/ROMEOVILLE IL
1200 AM CDT FRI MAY 06 2016

NOTE: "FAIR" INDICATES FEW OR NO CLOUDS BELOW 12,000 FEET WITH NO
SIGNIFICANT WEATHER AND/OR OBSTRUCTIONS TO VISIBILITY.

* THESE STATIONS ARE NOT UNDER NWS QUALITY CONTROL. THEY ALSO MAY NOT
  REPORT WEATHER SUCH AS PRECIPITATION OR FOG.

ILZ005-006-012>014-019>023-060600-
NORTHEAST ILLINOIS

CITY           SKY/WX    TMP DP  RH WIND       PRES   REMARKS
OHARE          CLEAR     47  37  68 CALM      29.98F
MIDWAY         CLEAR     50  38  63 CALM      29.98F
AURORA         CLEAR     48  41  76 S3        29.99S
LANSING*       CLEAR     43  40  90 CALM      29.99S
WAUKEGAN       CLEAR     40  37  89 SW3       29.98S
DUPAGE AIRPORT CLEAR     47  40  76 CALM      29.98S
WHEELING       CLEAR     44  37  76 CALM      30.00S
$$

WIZ051-052-058>065-066-070>072-060600-
SOUTHEAST WISCONSIN

CITY           SKY/WX    TMP DP  RH WIND       PRES   REMARKS
MILWAUKEE      PTCLDY    47  37  68 SW3       29.98S
KENOSHA*       CLEAR     42  36  79 CALM      29.98S
RACINE*        CLEAR     42  36  79 CALM      29.99S
BURLINGTON     CLEAR     41  41  99 CALM      29.98S
$$

INZ001>003-010>013-019-020-060600-
NORTHWEST INDIANA

CITY           SKY/WX    TMP DP  RH WIND       PRES   REMARKS
GARY*          NOT AVBL
MICHIGAN CITY* NOT AVBL
RENSSELAER*    NOT AVBL
VALPARAISO     CLEAR     43  38  82 CALM      29.99S
$$

LMZ740>746-060600-
SOUTHERN LAKE MICHIGAN

STATION/POSITION TIME  SKY/WX   TEMP WIND        PRES    VSBY
                                AIR  DIR/SP/G
                 (UTC)          (F)  (DEG/KT/KT) (MB)    (MI)
HARRISON CRIB    0400            48     CALM       N/A
BURNHAM HARBOR   0500            47  180/  1/  2   N/A
CALUMET HARBOR   0400            45  340/  1/  2 1015.1S
BURNS HARBOR     0400            47  310/  3/  4 1016.3S
MICHIGAN CITY    0400            45  270/  4/  5   N/A
$$

ABBREVIATIONS USED IN REMARKS
   TC - TEMPERATURE IN CELSIUS
  WCI - WIND CHILL INDEX
   HX - HEAT INDEX
  VSB - VISIBILITY
$$




USA.gov is the U.S. government's official web portal to all federal, state and local government web resources and services.